Regional Weather Roundup
Issued by NWS

Home | Current Version | Previous Version | Text Only | Print | Product List | Glossary On
Versions: 1 2 3 4 5 6 7 8 9 10 11 12 13 14 15 16 17 18 19 20 21 22 23 24 25 26 27 28 29 30 31 32 33 34 35 36 37 38 39 40 41 42 43 44 45 46 47 48 49 50
000
ASCA42 TJSJ 251811
RWRPR
PUERTO RICO/U.S. VIRGIN ISLANDS HOURLY WEATHER ROUNDUP
NATIONAL WEATHER SERVICE SAN JUAN PR
200 PM AST SUN JAN 25 2015

PRZ001-004-251900-
PUERTO RICO

CITY           SKY/WX    TMP DP  RH WIND       PRES   REMARKS
SAN JUAN LMM   PTSUNNY   84  68  58 SE8       29.98F
PONCE          MOSUNNY   86  73  66 SE12      29.96  HX  93
AGUADILLA      MOSUNNY   81  72  74 NE9       30.01F
CEIBA          CLOUDY    81  70  69 E8        30.02F
$$

PRZ006-007-251900-
U.S. VIRGIN ISLANDS

CITY           SKY/WX    TMP DP  RH WIND       PRES   REMARKS
CHRISTIANSTED  SUNNY     84  72  65 E14       30.00
$$

HOURLY WEATHER ROUNDUP FOR THE NEWS MEDIA

CITY           SKY/WX    TMP DP  RH WIND       PRES   REMARKS
MIAMI          MOSUNNY   64  41  42 VRB7G17   30.07F
ORLANDO        SUNNY     59  33  37 VRB3      30.04F
NEW YORK       PTSUNNY   45  16  31 W17G24    29.78R
NEWARK         PTSUNNY   42  18  37 W16       29.78R
CHICAGO        LGT SNOW  30  26  85 NE17G32   29.80R FOG     WCI  18
HARTFORD       SUNNY     38  21  50 W23G33    29.63S WCI  27
BOSTON         MOSUNNY   36  18  48 W17G23    29.63R WCI  26
DALLAS         MOSUNNY   63  29  27 NW22G30   30.02F
PHILADELPHIA   PTSUNNY   46  29  51 NW13G21   29.81F


USA.gov is the U.S. government's official web portal to all federal, state and local government web resources and services.